| time (UTC) | temp F | wind direction | speed MPH | gust MPH | rain 1hr in | rain 24hr in | rain mn in | humidity % | barometer mb |
| 20260902153017 | 69 | 202 | 2.0 | 6.0 | 0.00 | 0.00 | 0.00 | 48 | 1009.2 |
| 20260902151517 | 65 | 233 | 0.0 | 3.0 | 0.00 | 0.00 | 0.00 | 53 | 1009.4 |
| 20260902150010 | 63 | 259 | 0.0 | 2.0 | 0.00 | 0.00 | 0.00 | 55 | 1009.6 |
| 20260902144517 | 62 | 247 | 0.0 | 1.0 | 0.00 | 0.00 | 0.00 | 54 | 1009.7 |
| 20260902143002 | 61 | 161 | 0.0 | 2.0 | 0.00 | 0.00 | 0.00 | 56 | 1009.8 |
| 20260902141502 | 61 | 226 | 1.0 | 3.0 | 0.00 | 0.00 | 0.00 | 54 | 1010.0 |
| 20260902140002 | 62 | 234 | 2.0 | 6.0 | 0.00 | 0.00 | 0.00 | 52 | 1009.9 |
| 20260902134559 | 62 | 242 | 1.0 | 3.0 | 0.00 | 0.00 | 0.00 | 54 | 1009.8 |
| 20260902133025 | 60 | 238 | 0.0 | 2.0 | 0.00 | 0.00 | 0.00 | 57 | 1009.5 |
| 20260902131520 | 57 | 297 | 0.0 | 1.0 | 0.00 | 0.00 | 0.00 | 62 | 1009.4 |
| 20260902130046 | 55 | 267 | 0.0 | 2.0 | 0.00 | 0.00 | 0.00 | 64 | 1009.5 |
| 20260902124543 | 53 | 275 | 0.0 | 4.0 | 0.00 | 0.00 | 0.00 | 66 | 1009.5 |
| 20260902123037 | 52 | 259 | 1.0 | 4.0 | 0.00 | 0.00 | 0.00 | 68 | 1009.3 |
| 20260902121536 | 52 | 333 | 0.0 | 4.0 | 0.00 | 0.00 | 0.00 | 68 | 1009.3 |
| 20260902120033 | 51 | 359 | 0.0 | 0.0 | 0.00 | 0.00 | 0.00 | 69 | 1009.8 |
| 20260902114535 | 51 | 304 | 0.0 | 0.0 | 0.00 | 0.00 | 0.00 | 70 | 1009.8 |
| 20260902113030 | 50 | 295 | 0.0 | 1.0 | 0.00 | 0.00 | 0.00 | 71 | 1010.0 |
| 20260902111530 | 50 | 304 | 0.0 | 2.0 | 0.00 | 0.00 | 0.00 | 71 | 1010.5 |
| 20260902110030 | 48 | 317 | 0.0 | 1.0 | 0.00 | 0.00 | 0.00 | 73 | 1010.4 |
| 20260902104538 | 47 | 268 | 1.0 | 3.0 | 0.00 | 0.00 | 0.00 | 74 | 1010.2 |
| 20260902103023 | 48 | 241 | 0.0 | 0.0 | 0.00 | 0.00 | 0.00 | 72 | 1010.0 |
| 20260902101531 | 48 | 241 | 0.0 | 1.0 | 0.00 | 0.00 | 0.00 | 72 | 1010.0 |
| 20260902100021 | 50 | 244 | 0.0 | 1.0 | 0.00 | 0.00 | 0.00 | 69 | 1010.0 |
| 20260902094519 | 51 | 249 | 0.0 | 1.0 | 0.00 | 0.00 | 0.00 | 67 | 1009.7 |
| 20260902093023 | 51 | 242 | 0.0 | 2.0 | 0.00 | 0.00 | 0.00 | 68 | 1009.9 |
| 20260902091514 | 50 | 291 | 0.0 | 1.0 | 0.00 | 0.00 | 0.00 | 70 | 1010.1 |
| 20260902090013 | 49 | 289 | 0.0 | 2.0 | 0.00 | 0.00 | 0.00 | 71 | 1010.4 |
| 20260902084511 | 49 | 276 | 0.0 | 1.0 | 0.00 | 0.00 | 0.00 | 71 | 1010.4 |
| 20260902083008 | 49 | 303 | 0.0 | 2.0 | 0.00 | 0.00 | 0.00 | 70 | 1010.6 |
| 20260902081508 | 49 | 236 | 0.0 | 1.0 | 0.00 | 0.00 | 0.00 | 70 | 1010.5 |
| 20260902080007 | 48 | 236 | 0.0 | 0.0 | 0.00 | 0.00 | 0.00 | 71 | 1010.5 |
| 20260902074505 | 49 | 236 | 1.0 | 2.0 | 0.00 | 0.00 | 0.00 | 69 | 1010.6 |
| 20260902073003 | 49 | 303 | 0.0 | 1.0 | 0.00 | 0.00 | 0.00 | 70 | 1010.4 |
| 20260902071559 | 50 | 303 | 0.0 | 1.0 | 0.00 | 0.00 | 0.00 | 69 | 1010.3 |
| 20260902070100 | 50 | 292 | 0.0 | 1.0 | 0.00 | 0.00 | 0.00 | 69 | 1010.6 |
| 20260902064609 | 50 | 233 | 0.0 | 1.0 | 0.00 | 0.00 | 0.00 | 68 | 1010.6 |
| 20260902063050 | 51 | 230 | 0.0 | 0.0 | 0.00 | 0.00 | 0.00 | 66 | 1010.6 |
| 20260902061555 | 52 | 230 | 0.0 | 0.0 | 0.00 | 0.00 | 0.00 | 65 | 1010.7 |
| 20260902060046 | 53 | 230 | 0.0 | 0.0 | 0.00 | 0.00 | 0.00 | 63 | 1010.8 |
| 20260902054546 | 53 | 229 | 0.0 | 0.0 | 0.00 | 0.00 | 0.00 | 63 | 1010.8 |
| 20260902053048 | 54 | 230 | 0.0 | 0.0 | 0.00 | 0.00 | 0.00 | 63 | 1011.0 |
| 20260902051546 | 50 | 229 | 0.0 | 0.0 | 0.00 | 0.00 | 0.00 | 67 | 1010.9 |
| 20260902050041 | 51 | 230 | 0.0 | 0.0 | 0.00 | 0.00 | 0.00 | 65 | 1010.9 |
| 20260902044540 | 52 | 230 | 0.0 | 0.0 | 0.00 | 0.00 | 0.00 | 63 | 1011.0 |
| 20260902043040 | 53 | 230 | 0.0 | 0.0 | 0.00 | 0.00 | 0.00 | 62 | 1011.0 |
| 20260902041538 | 54 | 230 | 0.0 | 1.0 | 0.00 | 0.00 | 0.00 | 60 | 1011.0 |
| 20260902040038 | 54 | 229 | 0.0 | 0.0 | 0.00 | 0.00 | 0.00 | 58 | 1011.0 |
| 20260902034549 | 57 | 230 | 0.0 | 0.0 | 0.00 | 0.00 | 0.00 | 54 | 1011.0 |
| 20260902033053 | 60 | 230 | 0.0 | 1.0 | 0.00 | 0.00 | 0.00 | 49 | 1011.2 |
| 20260902031534 | 58 | 229 | 0.0 | 0.0 | 0.00 | 0.00 | 0.00 | 51 | 1011.1 |
| 20260902030033 | 57 | 230 | 0.0 | 1.0 | 0.00 | 0.00 | 0.00 | 52 | 1011.1 |
| 20260902024540 | 59 | 173 | 0.0 | 0.0 | 0.00 | 0.00 | 0.00 | 49 | 1010.9 |
| 20260902023033 | 63 | 173 | 0.0 | 0.0 | 0.00 | 0.00 | 0.00 | 45 | 1011.0 |
| 20260902021510 | 68 | 173 | 0.0 | 0.0 | 0.00 | 0.00 | 0.00 | 40 | 1010.9 |
| 20260902020000 | 71 | 173 | 0.0 | 0.0 | 0.00 | 0.00 | 0.00 | 33 | 1010.9 |
| 20260902014559 | 74 | 173 | 0.0 | 1.0 | 0.00 | 0.00 | 0.00 | 32 | 1010.9 |
| 20260902013104 | 77 | 163 | 0.0 | 2.0 | 0.00 | 0.00 | 0.00 | 29 | 1011.0 |
| 20260902011559 | 79 | 161 | 2.0 | 6.0 | 0.00 | 0.00 | 0.00 | 27 | 1010.9 |
| 20260902010059 | 80 | 151 | 1.0 | 6.0 | 0.00 | 0.00 | 0.00 | 27 | 1010.9 |
| 20260902004553 | 80 | 117 | 4.0 | 9.0 | 0.00 | 0.00 | 0.00 | 26 | 1011.0 |
| 20260902003052 | 81 | 129 | 5.0 | 8.0 | 0.00 | 0.00 | 0.00 | 25 | 1011.0 |
| 20260902001551 | 82 | 111 | 4.0 | 12.0 | 0.00 | 0.00 | 0.00 | 25 | 1011.0 |
| 20260902000049 | 83 | 108 | 4.0 | 8.0 | 0.00 | 0.00 | 0.00 | 25 | 1011.1 |
| 20260901234518 | 83 | 180 | 3.0 | 7.0 | 0.00 | 0.00 | 0.00 | 26 | 1011.2 |
| 20260901233027 | 83 | 157 | 3.0 | 8.0 | 0.00 | 0.00 | 0.00 | 26 | 1011.3 |
| 20260901231545 | 84 | 232 | 5.0 | 10.0 | 0.00 | 0.00 | 0.00 | 24 | 1011.4 |
| 20260901230044 | 83 | 243 | 4.0 | 9.0 | 0.00 | 0.00 | 0.00 | 25 | 1011.6 |
| 20260901224544 | 83 | 167 | 3.0 | 11.0 | 0.00 | 0.00 | 0.00 | 25 | 1011.8 |
| 20260901223036 | 84 | 207 | 4.0 | 10.0 | 0.00 | 0.00 | 0.00 | 24 | 1012.0 |
| 20260901221534 | 83 | 251 | 3.0 | 8.0 | 0.00 | 0.00 | 0.00 | 24 | 1012.0 |
| 20260901220032 | 83 | 141 | 5.0 | 9.0 | 0.00 | 0.00 | 0.00 | 25 | 1012.3 |
| 20260901214529 | 83 | 134 | 5.0 | 10.0 | 0.00 | 0.00 | 0.00 | 25 | 1012.4 |
| 20260901213028 | 82 | 137 | 4.0 | 9.0 | 0.00 | 0.00 | 0.00 | 26 | 1012.5 |
| 20260901211527 | 82 | 155 | 3.0 | 10.0 | 0.00 | 0.00 | 0.00 | 26 | 1012.8 |
| 20260901210021 | 82 | 206 | 6.0 | 9.0 | 0.00 | 0.00 | 0.00 | 26 | 1013.0 |
| 20260901204518 | 82 | 182 | 5.0 | 9.0 | 0.00 | 0.00 | 0.00 | 27 | 1013.1 |
| 20260901203015 | 81 | 159 | 5.0 | 12.0 | 0.00 | 0.00 | 0.00 | 26 | 1013.2 |
| 20260901201512 | 81 | 195 | 5.0 | 11.0 | 0.00 | 0.00 | 0.00 | 27 | 1013.4 |
| 20260901200012 | 80 | 180 | 4.0 | 10.0 | 0.00 | 0.00 | 0.00 | 28 | 1013.6 |
| 20260901194512 | 79 | 154 | 6.0 | 11.0 | 0.00 | 0.00 | 0.00 | 28 | 1013.7 |
| 20260901193003 | 79 | 161 | 4.0 | 14.0 | 0.00 | 0.00 | 0.00 | 29 | 1013.9 |
| 20260901191606 | 79 | 134 | 4.0 | 10.0 | 0.00 | 0.00 | 0.00 | 30 | 1014.0 |
| 20260901190112 | 78 | 186 | 5.0 | 11.0 | 0.00 | 0.00 | 0.00 | 30 | 1014.2 |
| 20260901184554 | 78 | 161 | 7.0 | 15.0 | 0.00 | 0.00 | 0.00 | 30 | 1014.4 |
| 20260901183051 | 77 | 146 | 6.0 | 11.0 | 0.00 | 0.00 | 0.00 | 31 | 1014.6 |
| 20260901181550 | 76 | 200 | 5.0 | 13.0 | 0.00 | 0.00 | 0.00 | 34 | 1014.7 |
| 20260901180042 | 75 | 173 | 6.0 | 13.0 | 0.00 | 0.00 | 0.00 | 34 | 1014.7 |
| 20260901174540 | 74 | 201 | 5.0 | 12.0 | 0.00 | 0.00 | 0.00 | 36 | 1015.0 |
| 20260901173036 | 73 | 129 | 4.0 | 10.0 | 0.00 | 0.00 | 0.00 | 37 | 1015.1 |
| 20260901171538 | 72 | 155 | 5.0 | 11.0 | 0.00 | 0.00 | 0.00 | 38 | 1015.3 |
| 20260901170027 | 71 | 124 | 6.0 | 12.0 | 0.00 | 0.00 | 0.00 | 39 | 1015.3 |
| 20260901164625 | 69 | 144 | 5.0 | 9.0 | 0.00 | 0.00 | 0.00 | 41 | 1015.5 |
| 20260901163054 | 69 | 127 | 4.0 | 11.0 | 0.00 | 0.00 | 0.00 | 41 | 1015.5 |
| 20260901161550 | 68 | 141 | 3.0 | 10.0 | 0.00 | 0.00 | 0.00 | 43 | 1015.6 |
| 20260901160046 | 67 | 154 | 7.0 | 13.0 | 0.00 | 0.00 | 0.00 | 44 | 1015.7 |
| 20260901154543 | 66 | 161 | 4.0 | 9.0 | 0.00 | 0.00 | 0.00 | 45 | 1015.6 |